Velovelo
Português Nederlands 日本語 中文
Español English čeština slovenčina
русский italiano polski norsk
français Deutsch svenska عربي
 
 page précédente
 Envoyer à un ami
 Pour imprimer
 ---> L’Ariègeoise 2009 : Résultats du 110 km (Mountagnole) du 1001 au 2092ème

ClasNomPrénomCat.C.cTemps..Ecart..
1001 TRIMOULET DOMINIQUE HM-C 369 5:10:21.9 1:38:27
1002 RAKOTOVAO ADRIEN HM-D 217 5:10:22.2 1:38:27
1003 ROCA GERARD HM-D 218 5:10:27.0 1:38:32
1004 BEZIAT CLAUDE HM-D 219 5:10:27.5 1:38:33
1005 BIBE CHRISTIAN HM-D 220 5:10:31.7 1:38:37
1006 QUINTANA JEAN HM-E 75 5:10:35.1 1:38:40
1007 FABRE JACQUES HM-D 221 5:10:36.7 1:38:42
1008 GUIRAL ALEXIS HM-D 222 5:10:40.2 1:38:45
1009 LE COCGUEN REGIS HM-B 233 5:10:43.1 1:38:48
1010 STEININGER ALAIN HM-D 223 5:10:47.2 1:38:52
1011 LIECHTI CYRILLE HM-C 370 5:10:47.8 1:38:53
1012 GALTIER BRUNO HM-B 234 5:10:47.8 1:38:53
1013 SADOURNY PATRICK HM-C 371 5:10:49.5 1:38:55
1014 GRACIA ERIC HM-C 372 5:10:51.1 1:38:56
1015 JOURDAS JACQUES HM-E 76 5:10:52.6 1:38:58
1016 GRAND BERNARD HM-C 373 5:10:52.8 1:38:58
1017 ZANGHIERI JEAN CLAUDE HM-E 77 5:10:56.0 1:39:01
1018 RAYNAUD EMMANUEL HM-A 84 5:11:01.0 1:39:06
1019 GROSJEAN XAVIER HM-C 374 5:11:02.7 1:39:08
1020 BALAGUE JEAN JACQUES HM-E 78 5:11:04.7 1:39:10
1021 ROBERT LAURENT HM-C 375 5:11:23.9 1:39:29
1022 DIDES JEAN JACQUES HM-D 224 5:11:24.3 1:39:29
1023 VALENTI THIEERY HM-D 225 5:11:32.3 1:39:37
1024 MARTIN KEVIN HM-A 85 5:11:32.8 1:39:38
1025 CHAVE CLAUDE HM-E 79 5:11:37.7 1:39:43
1026 DEYMIE PIERRE HM-C 376 5:11:43.7 1:39:49
1027 MARTY JEROME HM-B 235 5:11:43.8 1:39:49
1028 PARISOTTO JEAN CLAUDE HM-D 226 5:11:52.0 1:39:57
1029 GIBOUT ROBERT HM-E 80 5:11:53.2 1:39:58
1030 AMIEL JEAN MARIE HM-C 377 5:12:11.0 1:40:16
1031 COZAR PIERRE HM-D 227 5:12:14.8 1:40:20
1032 DUBOIS FREDERIC HM-C 378 5:12:19.8 1:40:25
1033 MONDOLY PIERRE HM-B 236 5:12:32.3 1:40:37
1034 VILLAR PHILIPPE HM-D 228 5:12:32.8 1:40:38
1035 ROSSET ERIC HM-B 237 5:12:38.2 1:40:43
1036 HUC CYRIL HM-B 238 5:12:40.9 1:40:46
1037 ULMET DAVID HM-A 86 5:12:42.1 1:40:47
1038 FABRE BERNARD HM-C 379 5:12:43.3 1:40:48
1039 CABANES JEROME HM-C 380 5:12:43.3 1:40:48
1040 GARROS ROGER HM-E 81 5:12:51.3 1:40:56
1041 HOCQUET DIDIER HM-D 229 5:12:53.5 1:40:58
1042 MILLES GERARD HM-E 82 5:12:53.8 1:40:59
1043 BESSE PATRICK HM-D 230 5:12:54.4 1:40:59
1044 AUGER BERNARD HM-D 231 5:12:55.0 1:41:00
1045 FRIES FABRICE HM-B 239 5:12:57.9 1:41:03
1046 LESNIER JOEL HM-D 232 5:13:03.0 1:41:08
1047 ROUSSEAU STANISLAS HM-C 381 5:13:09.8 1:41:15
1048 DALEAS JACQUES HM-C 382 5:13:10.7 1:41:16
1049 AUMONIER FRANCOIS HM-A 87 5:13:11.2 1:41:16
1050 ROUCH DANIEL HM-C 383 5:13:13.3 1:41:18
1051 RIGAL ALAIN HM-E 83 5:13:20.3 1:41:25
1052 GAUTHIER PATRICK HM-D 233 5:13:20.9 1:41:26
1053 CARRIERES JEAN LUC HM-C 384 5:13:25.3 1:41:30
1054 DELEGUE LAURENT HM-B 240 5:13:27.3 1:41:32
1055 VERGE ERIC HM-C 385 5:13:28.4 1:41:33
1056 CATHALA CORINNE DM-W2 5 5:13:29.0 1:41:34
1057 RICHARD DAVID HM-B 241 5:13:36.9 1:41:42
1058 SISTENICH DIDIER HM-C 386 5:13:39.3 1:41:44
1059 PIGANIOL JEAN HM-E 84 5:13:43.3 1:41:48
1060 SEIGNEURIE GEORGES HM-D 234 5:13:43.5 1:41:48
1061 DECUT DENIS HM-D 235 5:13:47.5 1:41:52
1062 ULMET LAURENT HM-C 387 5:13:53.7 1:41:59
1063 PINQUIE PHILIPPE HM-D 236 5:13:55.6 1:42:01
1064 MONBORNE OLIVIER HM-B 242 5:13:57.9 1:42:03
1065 RECHE DIEGO HM-E 85 5:14:00.5 1:42:05
1066 LONGO ROGER HM-D 237 5:14:05.2 1:42:10
1067 PARTEZANA JEAN CHRISTOPHE HM-C 388 5:14:07.4 1:42:12
1068 SCHWAGER ALEXANDRE HM-B 243 5:14:11.8 1:42:17
1069 LAFON LAURENT HM-C 389 5:14:17.9 1:42:23
1070 MARCHAL DOMINIQUE HM-D 238 5:14:21.0 1:42:26
1071 DIEGO ESTEVEZ ABEYTUA HM-B 244 5:14:23.2 1:42:28
1072 GAILHANOU MICHEL HM-D 239 5:14:23.8 1:42:29
1073 SEMENT JEAN PIERRE HM-E 86 5:14:24.4 1:42:29
1074 GARCIA JEAN PIERRE HM-D 240 5:14:27.1 1:42:32
1075 DUBOIS ALAIN HM-C 390 5:14:27.7 1:42:33
1076 CASTRO VICTOR HM-C 391 5:14:28.0 1:42:33
1077 BOCHU MICHEL HM-C 392 5:14:30.6 1:42:36
1078 SEYD PATRICK HM-E 87 5:14:30.8 1:42:36
1079 CAREME PHILIPPE HM-C 393 5:14:33.0 1:42:38
1080 LEBAS GERARD HM-D 241 5:14:34.4 1:42:39
1081 CASSAN JACQUES HM-D 242 5:14:34.6 1:42:40
1082 POISSON DENIS HM-D 243 5:14:38.7 1:42:44
1083 DUSSAUSSOIS FRANCIS HM-E 88 5:14:38.8 1:42:44
1084 ANDRES GILLES HM-B 245 5:14:39.6 1:42:45
1085 ARQUE ALAIN HM-B 246 5:14:42.4 1:42:47
1086 BERNAT MICHEL HM-E 89 5:14:42.5 1:42:47
1087 FONTORBES JEAN PAUL HM-C 394 5:14:43.7 1:42:49
1088 MOURIERES JEAN LUC HM-D 244 5:14:43.8 1:42:49
1089 LAVILLA JEAN JACQUES HM-C 395 5:14:46.8 1:42:52
1090 FABARON EMILE HM-E 90 5:14:49.4 1:42:54
1091 DELAMPLE JEAN MARC HM-D 245 5:14:51.3 1:42:56
1092 PESCE PASCAL HM-B 247 5:14:53.6 1:42:59
1093 BOSC FLORENT HM-C 396 5:14:57.5 1:43:02
1094 BAUDEIGNE SEBASTIEN HM-B 248 5:14:59.0 1:43:04
1095 GUIBERT NOEL HM-C 397 5:14:59.2 1:43:04
1096 TOFFOLON ANGELO HM-E 91 5:15:04.8 1:43:10
1097 AGINOR CLAUDE HM-D 246 5:15:06.3 1:43:11
1098 MORETTO ELVIO HM-E 92 5:15:07.0 1:43:12
1099 BET JEROME HM-B 249 5:15:14.3 1:43:19
1101 BIGARE GERARD HM-D 247 5:15:24.3 1:43:29
1102 VALTER JEAN PAUL HM-C 398 5:15:29.2 1:43:34
1103 LENFANT JEAN LUC HM-B 251 5:15:44.4 1:43:49
1104 LOUGARRE JEAN MICHEL HM-C 399 5:15:52.5 1:43:58
1105 PLANTIE PATRICK HM-C 400 5:16:00.7 1:44:06
1106 RORATO PHILIPPE HM-B 252 5:16:03.0 1:44:08
1107 ROUX GERARD HM-D 248 5:16:06.6 1:44:12
1108 CASTEX NOEL HM-E 93 5:16:09.4 1:44:14
1109 DEW DAVID HM-D 249 5:16:10.2 1:44:15
1110 BOUISSIOUX SERGE HM-D 250 5:16:14.3 1:44:19
1111 NAULIN OLIVIER HM-B 253 5:16:20.8 1:44:26
1112 SOUBIELLE RICHARD HM-D 251 5:16:21.3 1:44:26
1113 TRONC JEAN LUC HM-D 252 5:16:23.5 1:44:28
1114 GAZANIOL YVES HM-E 94 5:16:25.2 1:44:30
1115 FORTIN CHRISTOPHE HM-B 254 5:16:32.7 1:44:38
1116 GALESI MICHEL HM-D 253 5:16:34.5 1:44:39
1117 RUBIO STEPHANIE DM-W1 6 5:16:35.3 1:44:40
1118 CHAVANT VALERIE DM-W2 6 5:16:35.7 1:44:41
1119 LAPEYRE JEAN LUC HM-C 401 5:16:47.8 1:44:53
1120 GOULLET CHRISTIAN HM-B 255 5:16:52.8 1:44:58
1121 SANCHEZ GABRIEL HM-E 95 5:16:52.9 1:44:58
1122 MARTINEZ THIERRY HM-B 256 5:16:55.1 1:45:00
1123 DEDIEU GUY HM-D 254 5:16:55.4 1:45:00
1124 INHARGUE JEAN FRANCOIS HM-D 255 5:16:57.6 1:45:03
1125 KOLENC GARY HM-C 402 5:17:23.5 1:45:28
1126 MAGNE JEAN BERNARD HM-D 256 5:17:25.0 1:45:30
1127 LAGARDE MICHEL HM-D 257 5:17:25.6 1:45:31
1128 RAUFASTE DANIEL HM-C 403 5:17:32.6 1:45:38
1129 MENUT LUDOVIC HM-A 88 5:17:35.9 1:45:41
1130 LLUIS RENE HM-E 96 5:17:43.1 1:45:48
1131 RAYNAUD NICOLAS HM-B 257 5:17:52.4 1:45:57
1132 NICOLAS JEAN JACQUES HM-E 97 5:18:03.5 1:46:08
1133 LAUREAU BENJAMIN HM-A 89 5:18:06.4 1:46:11
1134 BUHLER PHILIPPE HM-D 258 5:18:07.8 1:46:13
1135 TALEB ABDEL HM-B 258 5:18:12.7 1:46:18
1136 CODROMAZ JEROME HM-C 404 5:18:15.0 1:46:20
1137 OLIVE MICHEL HM-D 259 5:18:15.6 1:46:21
1138 BEAUMONT LAURENCE DM-W2 7 5:18:17.0 1:46:22
1139 DELMAS DIDIER HM-C 405 5:18:17.5 1:46:23
1140 RESSIER GERARD HM-E 98 5:18:17.8 1:46:23
1141 LAUREAU ROBERT HM-D 260 5:18:18.2 1:46:23
1142 MANDROU SYLVAIN HM-C 406 5:18:18.3 1:46:23
1143 LAGNEAU CHRISTOPHE HM-D 261 5:18:21.7 1:46:27
1144 COSTECALDE CATHY DM-W3 6 5:18:24.5 1:46:29
1146 BELLISSENS ERIC HM-C 407 5:18:30.2 1:46:35
1147 OCCELLI MAURICE HM-C 408 5:18:30.4 1:46:35
1148 SIRAC DENIS HM-C 409 5:18:35.2 1:46:40
1149 ALESIVA ADOLPHE HM-E 99 5:18:41.6 1:46:47
1150 MEOT RODOLPHE HM-C 410 5:18:44.5 1:46:49
1151 DELATTRE BRUNO HM-C 411 5:18:47.9 1:46:53
1152 FROMENTIN ERIC HM-C 412 5:18:48.4 1:46:53
1153 DELORT JOUVES FRANCOIS HM-B 259 5:18:54.1 1:46:59
1154 LAVAUD MICHEL HM-E 100 5:18:56.4 1:47:01
1155 GELAS ROGER HM-D 262 5:18:56.5 1:47:01
1156 BODET PIERRICK HM-D 263 5:19:01.5 1:47:07
1157 ALOZY GILLES HM-D 264 5:19:08.7 1:47:14
1158 MOREAU ALAIN HM-C 413 5:19:09.9 1:47:15
1159 PROUDHOM JEAN FRANCOIS HM-C 414 5:19:12.5 1:47:17
1160 ALBERT CLAUDE HM-E 101 5:19:13.5 1:47:18
1161 CHAIGNEAU OLIVIER HM-B 260 5:19:13.8 1:47:19
1162 AUMONT PASCAL HM-C 415 5:19:17.2 1:47:22
1163 VIANA JACQUES HM-D 265 5:19:17.5 1:47:22
1164 CANCELA PATRICE HM-B 261 5:19:18.2 1:47:23
1165 LABBE JEAN LOUIS HM-D 266 5:19:18.9 1:47:24
1166 TOLOSA JESUS HM-D 267 5:19:20.6 1:47:26
1167 FLORANNE JEAN FRANCOIS HM-A 90 5:19:21.8 1:47:27
1168 HANSAR STEPHANE HM-B 262 5:19:22.0 1:47:27
1169 LANNES JOSIANE DM-W3 7 5:19:24.8 1:47:30
1170 CAMBOUNET JEAN JACQUES HM-D 268 5:19:27.1 1:47:32
1171 CASTAN LAURENT HM-C 416 5:19:28.2 1:47:33
1172 VEILLET BRIGITTE DM-W2 8 5:19:35.7 1:47:41
1173 BANC NICOLAS HM-B 263 5:19:39.0 1:47:44
1174 LE PAGE DIDIER HM-D 269 5:19:42.1 1:47:47
1175 FAVARD JEAN LOUIS HM-D 270 5:19:42.4 1:47:47
1176 ROLLAND THIERRY HM-C 417 5:19:42.7 1:47:48
1177 LAFLOU PIERRE HM-E 102 5:19:44.3 1:47:49
1178 CAUSSIDERY CHRISTIAN HM-C 418 5:19:46.6 1:47:52
1179 GUI JOSE HM-D 271 5:19:58.5 1:48:03
1180 QUENESCOURT DANIEL HM-E 103 5:19:59.6 1:48:05
1181 BERET ROBERT HM-E 104 5:20:01.3 1:48:06
1182 PEDOUSSAUT JEAN PAUL HM-C 419 5:20:04.4 1:48:09
1183 SANCHO COMES GABRIEL HM-A 91 5:20:06.4 1:48:11
1184 SPELETTE JOSE PIERRE HM-C 420 5:20:15.2 1:48:20
1185 AZEMA HUBERT HM-E 105 5:20:15.3 1:48:20
1186 DURAND CEDRIC HM-B 264 5:20:17.6 1:48:23
1187 FUNFSCHILLING PASCAL HM-C 421 5:20:19.7 1:48:25
1188 TAVERNER HENRI HM-D 272 5:20:24.9 1:48:30
1189 VACQUIE JEAN MARC HM-C 422 5:20:28.6 1:48:34
1190 GOUZY GERARD HM-E 106 5:20:31.8 1:48:37
1191 LORENZIN NATHALIE DM-W2 9 5:20:34.8 1:48:40
1192 THOURON DENIS HM-C 423 5:20:57.8 1:49:03
1193 SURATTEAU JEAN YVES HM-D 273 5:21:05.0 1:49:10
1194 ANDRIEU PHILIPPE HM-B 265 5:21:06.5 1:49:11
1195 TEYSSIER PATRICK HM-D 274 5:21:08.0 1:49:13
1196 DURAND ALAIN HM-B 266 5:21:26.7 1:49:32
1197 DARTIGUES REGIS HM-C 424 5:21:28.9 1:49:34
1198 MOORE ROBERT HM-D 275 5:21:33.6 1:49:39
1199 DUPOUY GEORGES HM-D 276 5:21:35.3 1:49:40
1200 ESTAMPE PIERRE HM-C 425 5:21:41.5 1:49:46
1201 BERNOU SERGE HM-C 426 5:21:42.6 1:49:48
1202 FERRER MAGALI DM-W1 7 5:21:47.7 1:49:53
1203 ROUCH CLEMENT HM-A 92 5:21:47.7 1:49:53
1204 MOUDENS MICHEL HM-D 277 5:21:48.8 1:49:54
1205 MERIC SERGE HM-D 278 5:21:49.7 1:49:55
1206 DUMON PATRICIA DM-W3 8 5:21:53.9 1:49:59
1207 BENAC FREDERIC HM-C 427 5:22:00.9 1:50:06
1208 CAMBONIE GERARD HM-E 107 5:22:07.0 1:50:12
1209 PUJOL ANDRE HM-D 279 5:22:10.3 1:50:15
1210 MAURY OLIVIER HM-C 428 5:22:26.7 1:50:32
1211 LINEHAN ADRIEN HM-A 93 5:22:32.3 1:50:37
1212 COLLEONI CHRISTIAN HM-D 280 5:22:37.0 1:50:42
1213 BRAZEILLES NICOLAS HM-B 267 5:22:41.6 1:50:47
1214 HARDION BRUNO HM-C 429 5:22:54.5 1:50:59
1215 FERRET JEROME HM-C 430 5:22:55.6 1:51:01
1216 HELIN JACQUES HM-E 108 5:23:04.4 1:51:09
1217 CHIVE DORIS HM-C 431 5:23:17.4 1:51:22
1218 MAURY MICHEL HM-E 109 5:23:18.5 1:51:23
1219 CALONGE HENRI HM-D 281 5:23:19.9 1:51:25
1220 DAUSSIN SERGE HM-E 110 5:23:22.9 1:51:28
1221 ROUDIERE MARC HM-D 282 5:23:23.0 1:51:28
1222 BOYRIE STEPHANE HM-B 268 5:23:24.2 1:51:29
1223 AREVALO DANIEL HM-D 283 5:23:32.3 1:51:37
1224 MEURANT ISTRIA FABIEN HM-A 94 5:23:39.4 1:51:44
1225 AUDOYE LAURENT HM-B 269 5:23:42.6 1:51:48
1226 LOYER JEAN PIERRE HM-E 111 5:23:49.4 1:51:54
1227 BOUCHER MICHEL HM-E 112 5:23:56.7 1:52:02
1228 GABENS GUY HM-D 284 5:23:57.4 1:52:02
1229 GARREAU THIERRY HM-C 432 5:23:58.3 1:52:03
1230 DEBONS PHILIPPE HM-C 433 5:24:03.2 1:52:08
1232 DEBONS PATRICE HM-C 434 5:24:05.4 1:52:10
1233 PICKERING MARTYN HM-D 285 5:24:13.4 1:52:18
1234 BRAGAGNOLO NARCISSE HM-E 113 5:24:15.9 1:52:21
1235 LATAPIE DANIEL HM-E 114 5:24:20.1 1:52:25
1236 BAUDOUY GILLES HM-D 286 5:24:29.2 1:52:34
1237 DANNE GERARD HM-E 115 5:24:29.5 1:52:35
1238 FONTES THIERRY HM-B 271 5:24:42.1 1:52:47
1239 POPESCU DANIEL HM-C 435 5:25:02.0 1:53:07
1240 LEVACHER PASCAL HM-C 436 5:25:12.6 1:53:18
1241 PALLAS GILBERT HM-D 287 5:25:13.0 1:53:18
1242 BIGEYRE CHRISTOPHE HM-B 272 5:25:24.1 1:53:29
1243 GENOLINI YOAN HM-A 95 5:25:35.3 1:53:40
1244 MARY MICHEL HM-D 288 5:25:36.8 1:53:42
1245 DELIKAT MAURICE HM-E 116 5:25:43.1 1:53:48
1246 VIGUIER JACQUES HM-D 289 5:25:46.5 1:53:51
1247 DOURS CHRISTIAN HM-E 117 5:25:56.5 1:54:01
1248 VALMARY JEAN PIERRE HM-C 437 5:25:57.4 1:54:02
1249 GUERRA SERGE HM-C 438 5:26:16.2 1:54:21
1250 HUC DUMAS XAVIER HM-E 118 5:26:16.8 1:54:22
1251 BAROU JEROME HM-B 273 5:26:22.2 1:54:27
1252 FERRAND DOMINIQUE DM-W2 10 5:26:30.5 1:54:35
1253 COURAGIER NORBERT HM-E 119 5:26:37.1 1:54:42
1254 PAPAIX SERGE HM-D 290 5:26:43.7 1:54:49
1255 PELICOT ALEXANDRE HM-B 274 5:26:49.7 1:54:55
1256 BERRUECO CHRISTIANE DM-W2 11 5:26:50.4 1:54:55
1257 RIGAL JEAN LUC HM-C 439 5:26:51.0 1:54:56
1258 DEVAUX BRUNO HM-C 440 5:26:51.8 1:54:57
1259 SOULOUMIAC ERIC HM-C 441 5:26:54.7 1:55:00
1260 BERRUECO DANIEL HM-C 442 5:26:57.2 1:55:02
1261 RECAZENS CHRISTIAN HM-E 120 5:26:57.8 1:55:03
1262 RAMON PATRICK HM-C 443 5:27:04.8 1:55:10
1263 PRINCE CHARLES HM-E 121 5:27:09.8 1:55:15
1264 NAJAC CHRISTINE DM-W2 12 5:27:11.3 1:55:16
1265 VANNIER MICHEL HM-E 122 5:27:11.5 1:55:16
1266 NICOLAI GEORGES HM-E 123 5:27:13.7 1:55:19
1267 VOGEL PATRICK P 96 5:27:18.3 1:55:23
1268 GARRIGUES LAURENT HM-B 275 5:27:19.5 1:55:24
1269 MORERE CHRISTIAN HM-E 124 5:27:20.1 1:55:25
1270 BISBAL JEAN HM-E 125 5:27:25.3 1:55:30
1271 IZARD DIDIER HM-C 444 5:27:27.1 1:55:32
1272 CAZENAVE CHRISTIAN HM-E 126 5:27:29.5 1:55:35
1273 CADEOT ANDRE HM-D 291 5:27:30.4 1:55:35
1274 DESMARAIS ETIENNE HM-D 292 5:27:30.5 1:55:35
1275 COUILLENS MICHEL HM-E 127 5:27:37.1 1:55:42
1276 CUTILLAS RENE HM-E 128 5:27:44.5 1:55:49
1277 URDIROZ ALBERT HM-C 445 5:27:49.4 1:55:54
1278 GARCIA ALAIN HM-D 293 5:27:50.7 1:55:56
1279 ANDISSAC ALEXIS HM-D 294 5:27:51.6 1:55:57
1280 BRINGUIER CHARLES HM-D 295 5:27:52.1 1:55:57
1281 PELLEGRINO GERARD HM-D 296 5:27:52.6 1:55:58
1282 MENASSE CHRISTOPHE HM-B 276 5:27:54.1 1:55:59
1283 CASADEWALL CHRISTIAN HM-E 129 5:27:58.9 1:56:04
1284 NOVELLAS FOLGAROLAS ANTONI HM-C 446 5:28:01.0 1:56:06
1285 FILHOL BERNARD HM-D 297 5:28:08.3 1:56:13
1286 PELISSIE JEAN NOEL HM-B 277 5:28:10.2 1:56:15
1287 PUIG ROBERT HM-D 298 5:28:12.1 1:56:17
1288 DARDI EGISTO HM-E 130 5:28:13.6 1:56:19
1289 DANIAUD STEPHANE HM-B 278 5:28:14.0 1:56:19
1290 DESBONNEZ ERIC HM-C 447 5:28:14.2 1:56:19
1291 DRAHON CHRISTIAN HM-C 448 5:28:16.4 1:56:21
1292 LURDE PAUL HM-D 299 5:28:26.2 1:56:31
1293 BELTRAN GEORGES CLAUDE HM-E 131 5:28:26.4 1:56:31
1294 RIBES HENRI HM-D 300 5:28:28.8 1:56:34
1295 VERGELLY JACQUES HM-D 301 5:28:29.9 1:56:35
1296 GATAULT JEAN YVES HM-D 302 5:28:32.9 1:56:38
1297 HUGUET BENOIT HM-A 97 5:28:34.5 1:56:39
1298 COURJAUD FREDERIC HM-C 449 5:28:35.3 1:56:40
1299 CASTAING MICKAEL HM-A 98 5:28:47.0 1:56:52
1300 PEYROUZET GERALD HM-D 303 5:28:47.4 1:56:52
1301 DE MAN ALAIN HM-D 304 5:28:53.0 1:56:58
1302 GHIRARDI PASCAL HM-C 450 5:29:01.9 1:57:07
1303 BOYER JEAN MAURICE HM-D 305 5:29:10.1 1:57:15
1304 COQUET THIERRY HM-C 451 5:29:14.4 1:57:19
1305 BLANQUET ROMAIN HM-B 279 5:29:19.4 1:57:24
1306 ALMENDRO BRUNO HM-C 452 5:29:23.6 1:57:29
1307 MIROUZE PATRICK HM-D 306 5:29:27.0 1:57:32
1308 SUTCLIFFE SIMON HM-C 453 5:29:27.5 1:57:32
1309 NOTTEZ FRANCIS HM-D 307 5:29:28.7 1:57:34
1310 MOUCHE JEAN YVES HM-E 132 5:29:52.9 1:57:58
1311 SANCHEZ PASCAL HM-C 454 5:29:58.3 1:58:03
1312 MAGALHAES MANUEL HM-C 455 5:30:18.8 1:58:24
1313 LACROIX BERNARD HM-D 308 5:30:22.4 1:58:27
1314 VIENNE JEAN FERNAND HM-E 133 5:30:29.8 1:58:35
1315 SECHEYRON OLIVIER HM-C 456 5:30:40.4 1:58:45
1316 CRASSAC RENE HM-D 309 5:30:52.9 1:58:58
1317 REIX JEAN MARC HM-C 457 5:30:54.3 1:58:59
1318 GRANIER DIDIER HM-D 310 5:30:57.0 1:59:02
1319 CHAMPAIN GREGOIRE HM-A 99 5:30:58.5 1:59:03
1320 DANNE OLIVIER HM-B 280 5:30:59.8 1:59:05
1321 LARA PHILIPPE HM-B 281 5:31:13.3 1:59:18
1322 CHAUSSIN CEDRIC HM-B 282 5:31:22.6 1:59:28
1323 GERMINAL ALAIN HM-E 134 5:31:32.6 1:59:38
1324 BACON ROLAND HM-D 311 5:31:39.2 1:59:44
1325 ARBOS JEAN HM-D 312 5:31:43.5 1:59:48
1326 AIGLIN JEAN JACQUES HM-D 313 5:31:45.4 1:59:50
1327 GERIN MICHEL HM-C 458 5:31:45.8 1:59:51
1328 SAVARY JEAN BERNARD HM-C 459 5:31:47.1 1:59:52
1329 FUALDES BERNARD HM-D 314 5:31:48.3 1:59:53
1330 BAQUE THIERRY HM-D 315 5:31:54.6 2:00:00
1331 FESSAGUET OLIVIER HM-D 316 5:31:56.8 2:00:02
1332 BENOI SYLVAIN HM-B 283 5:31:58.7 2:00:04
1333 SOULAGE JEAN LUC HM-C 460 5:32:05.3 2:00:10
1334 GUIU BERNARD HM-C 461 5:32:12.3 2:00:17
1335 COLIN LAURENT HM-B 284 5:32:13.0 2:00:18
1336 LLANDRIC GERARD HM-C 462 5:32:13.8 2:00:19
1337 VERDIER LIONEL HM-B 285 5:32:16.7 2:00:22
1338 GISQUET FLORENT HM-B 286 5:32:17.2 2:00:22
1339 ANENTO PASCAL HM-C 463 5:32:18.0 2:00:23
1340 SANTAROSSA ROBERTO HM-C 464 5:32:24.1 2:00:29
1341 CASSAGNE ALEXANDRE HM-C 465 5:32:26.9 2:00:32
1342 GONTRAN THIERRY HM-C 466 5:32:26.9 2:00:32
1343 HOAREAU ROBERT HM-E 135 5:32:30.8 2:00:36
1344 MASSIP CLAUDE HM-E 136 5:32:31.6 2:00:37
1345 BERAGNES DIDIER HM-D 317 5:32:33.4 2:00:38
1346 DUVERNEUIL PIERRE HM-C 467 5:32:45.7 2:00:51
1347 TIO CROS RAMON HM-D 318 5:32:53.5 2:00:58
1348 ESTEVE PIERRE HM-D 319 5:32:58.7 2:01:04
1349 KENNICHE KAMAL HM-B 287 5:32:59.7 2:01:05
1350 MARTIN JEAN JULIEN HM-D 320 5:33:00.7 2:01:06
1351 GUILLEN ALAIN HM-C 468 5:33:08.4 2:01:13
1352 SALIOT JEAN CLAUDE HM-D 321 5:33:08.4 2:01:13
1354 GONZALEZ ERIC HM-C 469 5:33:16.2 2:01:21
1355 SCHMITZ PATRICK HM-C 470 5:33:16.5 2:01:22
1356 VIGNERON FRANCIS HM-C 471 5:33:16.7 2:01:22
1357 FRANCES JEAN LOUIS HM-C 472 5:33:23.0 2:01:28
1358 HURLIN ORLANE DM-W1 8 5:33:24.0 2:01:29
1359 CORBON PIERRE HM-C 473 5:33:28.0 2:01:33
1360 PEREZ THOMAS HM-C 474 5:33:30.9 2:01:36
1361 REMY BERNARD HM-D 322 5:33:31.3 2:01:36
1362 CASTERAS HERVE HM-B 288 5:33:35.5 2:01:40
1363 BERNARD MATHIEU HM-A 100 5:33:40.7 2:01:46
1364 TRUQUET CHARLES HM-D 323 5:33:43.4 2:01:48
1365 BRILLAUD MARC HM-E 137 5:33:43.9 2:01:49
1366 BARBEAU PATRICK HM-C 475 5:33:46.3 2:01:51
1367 BOITEAU SYLVAIN HM-D 324 5:33:58.6 2:02:04
1368 DECHAINE STEPHANE HM-C 476 5:34:05.4 2:02:10
1369 THOMAS PATRICE HM-D 325 5:34:09.4 2:02:14
1370 GHIRARDI CHRISTIAN HM-E 138 5:34:12.2 2:02:17
1371 VALETTE FRANCIS HM-D 326 5:34:14.5 2:02:19
1372 PEREZ BERNARD HM-D 327 5:34:15.0 2:02:20
1373 PINTO SALA *** PRENOM ***DANIEL HM-C 477 5:34:24.7 2:02:30
1374 VIGNAUD ROGER HM-E 139 5:34:33.6 2:02:39
1375 HAUSTRATE JEAN LUC HM-D 328 5:34:34.0 2:02:39
1376 HERMET ARNAUD HM-B 289 5:34:37.5 2:02:42
1377 COMBES ALAIN HM-E 140 5:34:44.7 2:02:50
1378 GAUTHIER GERARD HM-E 141 5:34:46.2 2:02:51
1379 ROUILLOU JEAN MICHEL HM-C 478 5:34:47.6 2:02:53
1380 CABANAC SYLVAIN HM-C 479 5:35:01.0 2:03:06
1381 CHAUBARD SERGE HM-D 329 5:35:09.7 2:03:15
1382 CLAVER JEAN FRANCOIS HM-D 330 5:35:10.8 2:03:16
1383 SANROMA MAXIME HM-B 290 5:35:11.1 2:03:16
1384 ATTALI EMMANUEL HM-C 480 5:35:11.5 2:03:16
1385 DELEBECQUE RAYMOND HM-E 142 5:35:12.9 2:03:18
1386 SANNAC GERARD HM-E 143 5:35:15.2 2:03:20
1387 GONTHIER NADINE DM-W2 13 5:35:15.3 2:03:20
1388 JANY CHRISTOPHE HM-B 291 5:35:27.1 2:03:32
1389 CASSAN PIERRE FREDERIC HM-B 292 5:35:39.0 2:03:44
1390 BRAS DOMINIQUE HM-B 293 5:35:46.2 2:03:51
1391 SEGURA JEAN HM-D 331 5:35:47.2 2:03:52
1392 TOUSSAINT FRANCK HM-C 481 5:35:53.0 2:03:58
1393 GIMENEZ RAPHAEL HM-E 144 5:35:56.7 2:04:02
1394 RECAPET DAVID HM-C 482 5:36:04.7 2:04:10
1395 GREBENIOUK VICTOR HM-E 145 5:36:10.7 2:04:16
1396 SIMONNET PHILIPPE HM-C 483 5:36:13.2 2:04:18
1397 CESTER RICHARD HM-D 332 5:36:17.3 2:04:22
1398 NULLANS JEAN PHILIPPE HM-C 484 5:36:20.7 2:04:26
1399 MAILHE CHRISTOPHE HM-B 294 5:36:26.8 2:04:32
1400 LAFFORGUE GILLES HM-B 295 5:36:33.3 2:04:38
1401 BEC PHILIPPE HM-B 296 5:36:33.6 2:04:39
1402 FERRE JEAN HM-E 146 5:36:35.3 2:04:40
1403 MASSE JEAN LOUIS HM-E 147 5:36:37.0 2:04:42
1404 TARROUX JEROME HM-B 297 5:36:37.9 2:04:43
1405 LARTIGUE MARIE CHRISTINE DM-W3 9 5:36:41.6 2:04:47
1406 LECAT NICOLAS HM-B 298 5:36:43.7 2:04:49
1407 ROUIRE FRANCOIS HM-C 485 5:36:44.7 2:04:50
1408 ROCHE FABIEN HM-B 299 5:36:55.7 2:05:01
1409 CANSIERE ERICK HM-C 486 5:36:55.7 2:05:01
1410 POULAIN MAGALIE DM-W1 9 5:36:59.2 2:05:04
1411 SAINT VIGNE SERGE HM-C 487 5:37:02.2 2:05:07
1412 MAILLET CLAUDE HM-D 333 5:37:10.4 2:05:15
1413 PERRIGUET FRANCK HM-B 300 5:37:13.5 2:05:18
1414 BOISSIER THIERRY HM-C 488 5:37:14.8 2:05:20
1415 MEDOUS CLAUDE HM-D 334 5:37:22.8 2:05:28
1416 OLIVERAS JACQUES HM-D 335 5:37:29.3 2:05:34
1417 BADOSA SYLVAIN HM-D 336 5:37:32.1 2:05:37
1418 MOMBELET JEAN BAPTISTE HM-E 148 5:37:35.6 2:05:41
1419 AUTHIE GEORGES HM-E 149 5:37:36.3 2:05:41
1420 FAGES DANIEL HM-E 150 5:37:39.4 2:05:44
1421 CALVET FRANCIS HM-D 337 5:37:43.3 2:05:48
1422 GUIRAUD JEAN GABRIEL HM-C 489 5:37:44.7 2:05:50
1423 BOUFFARTIGUE ROGER HM-D 338 5:37:48.9 2:05:54
1425 GALY BERNARD HM-C 490 5:37:52.0 2:05:57
1426 ABRIAL MICHEL HM-C 491 5:37:54.5 2:05:59
1427 MIGNOTTE ALAIN HM-C 492 5:38:02.5 2:06:07
1428 LAUMONIER CHRISTOPHE HM-B 301 5:38:14.4 2:06:19
1429 DUPARD ROLAND HM-D 339 5:38:27.7 2:06:33
1430 GUY JEROME HM-B 302 5:38:28.8 2:06:34
1431 BEAUFILS JEAN PIERRE HM-E 151 5:38:35.3 2:06:40
1432 CASTELA LAURENT HM-B 303 5:38:43.5 2:06:48
1433 SYLVESTRE NICOLAS HM-B 304 5:38:52.8 2:06:58
1434 FLOUREUX ALAIN HM-C 493 5:38:54.2 2:06:59
1435 PERROT NICOLAS HM-A 101 5:39:17.5 2:07:22
1436 MORAINVILLIERS ADRIEN JOSE HM-E 152 5:39:28.5 2:07:34
1437 ARDILLER FRANCIS HM-D 340 5:39:33.7 2:07:39
1438 PUERTO ERIC HM-C 494 5:39:40.1 2:07:45
1439 LAMBERT JEAN PIERRE HM-E 153 5:39:44.3 2:07:49
1440 JOUANET JEAN PIERRE HM-E 154 5:39:44.9 2:07:50
1441 MASSON LAURENT HM-C 495 5:39:45.4 2:07:50
1442 MOUGET DANIEL HM-E 155 5:39:55.5 2:08:00
1443 TIREFORT DOMINIQUE HM-C 496 5:39:58.3 2:08:03
1444 CANTET CHRISTIAN HM-D 341 5:39:59.4 2:08:04
1445 LEGER JEAN LUC HM-C 497 5:39:59.6 2:08:05
1446 BOUCHE PIERRE HM-E 156 5:40:12.0 2:08:17
1447 PAIN PASCAL HM-C 498 5:40:13.0 2:08:18
1448 MICHEL RENE JEAN HM-C 499 5:40:14.1 2:08:19
1449 SERRAND ALAIN HM-C 500 5:40:18.9 2:08:24
1450 DUVIVIER RAYMOND HM-E 157 5:40:24.7 2:08:30
1451 SERVENTI ATTILIO HM-E 158 5:40:25.5 2:08:30
1452 MURILLO SERGE HM-D 342 5:40:40.5 2:08:45
1453 LABORIE GEORGES HM-E 159 5:40:41.8 2:08:47
1454 TOULOUSE EUGENE HM-E 160 5:40:45.8 2:08:51
1455 BOIRAUD BERNARD HM-D 343 5:41:00.4 2:09:05
1456 RESPAUD BOUNY PATRICK HM-C 501 5:41:02.0 2:09:07
1457 FONTANILLE NICOLAS HM-B 305 5:41:02.3 2:09:07
1458 REYNAUD PHILIPPE HM-C 502 5:41:09.0 2:09:14
1459 CABRIT STEPHANE HM-B 306 5:41:10.2 2:09:15
1460 COQUERY BRUNO HM-B 307 5:41:12.6 2:09:18
1461 JULLIEN JEROME HM-C 503 5:41:14.1 2:09:19
1462 SIMBOR CHRISTIAN HM-D 344 5:41:26.4 2:09:31
1463 LOUW DOMINIQUE HM-C 504 5:41:41.6 2:09:47
1464 FONTA ANDRE HM-E 161 5:41:43.8 2:09:49
1465 BRUNI GAETAN HM-E 162 5:41:43.9 2:09:49
1466 CASTANET DIDIER HM-D 345 5:41:51.3 2:09:56
1467 SABATIE FRANCOIS MINEUR 4 5:41:54.9 2:10:00
1468 DELACOUR HUBERT HM-C 505 5:42:02.3 2:10:07
1469 ESTEFFE SERGE HM-D 346 5:42:05.2 2:10:10
1471 BOURGES CHRISTIAN HM-D 347 5:42:08.1 2:10:13
1472 LOPEZ MARCEL HM-D 348 5:42:11.0 2:10:16
1473 EPRINCHARD MICHEL HM-D 349 5:42:25.1 2:10:30
1474 LAVAREL DAVID HM-B 308 5:42:28.3 2:10:33
1475 RIOS BERTRAND HM-C 506 5:42:34.7 2:10:40
1476 LOUBENS MARC HM-D 350 5:42:41.9 2:10:47
1477 TORRES JEAN CLAUDE HM-D 351 5:42:43.0 2:10:48
1478 GAY ROBERT HM-D 352 5:42:48.7 2:10:54
1479 HUC PATRICK HM-B 309 5:42:48.8 2:10:54
1480 LERAT DANIEL HM-E 163 5:42:55.6 2:11:01
1481 NYNS JEAN PIERRE HM-C 507 5:43:02.8 2:11:08
1482 MARIN HERVE HM-C 508 5:43:08.4 2:11:13
1483 SOPENA PATRICE HM-C 509 5:43:09.4 2:11:14
1484 DURAND JEAN HM-D 353 5:43:14.1 2:11:19
1485 SCHULTZ ROLAND HM-C 510 5:43:15.8 2:11:21
1486 RAMIREZ GERMAIN HM-D 354 5:43:19.3 2:11:24
1487 TEDESCO JACQUES HM-E 164 5:43:23.2 2:11:28
1488 ROMOEUF MARC HM-C 511 5:43:23.7 2:11:29
1489 CAMBOUT JACQUES HM-D 355 5:43:26.4 2:11:31
1490 DESMARAIS NICOLE DM-W3 10 5:43:29.8 2:11:35
1491 KELLER CHRISTIAN HM-C 512 5:43:30.7 2:11:36
1492 CAZENEUVE PHILIPPE HM-D 356 5:43:30.9 2:11:36
1493 FELIPE ANNE DM-W2 14 5:43:33.7 2:11:39
1494 GUILLEM ERIC HM-C 513 5:43:35.3 2:11:40
1495 VERDIER MICHEL HM-E 165 5:43:44.2 2:11:49
1496 ENEMARK CHRISTIAN HM-B 310 5:43:57.7 2:12:03
1497 CHANSOU GERARD HM-D 357 5:44:13.6 2:12:19
1498 CASTANET GERARD HM-D 358 5:44:22.2 2:12:27
1499 DUPOUY PASCAL HM-C 514 5:44:22.4 2:12:27
1500 RIVIERE JEROME HM-C 515 5:44:50.5 2:12:55
1501 PIBOULEAU ETIENNE HM-E 166 5:44:59.5 2:13:04
1502 DALQUIER BERNARD HM-D 359 5:45:03.7 2:13:09
1503 ROUGIER DIDIER HM-C 516 5:45:13.3 2:13:18
1504 GRANELL MICHEL HM-E 167 5:45:15.4 2:13:20
1505 COMBALIA PRATS JOSEP MARIA HM-D 360 5:45:29.7 2:13:35
1506 TEULAT OLIVIER HM-B 311 5:45:48.6 2:13:54
1507 LECROART YVES HM-D 361 5:45:57.5 2:14:02
1508 BRISELET ERIC HM-C 517 5:46:08.7 2:14:14
1509 ESPAGNE BERNARD HM-D 362 5:46:08.8 2:14:14
1510 MIROUSE CHRISTOPHE HM-C 518 5:46:09.8 2:14:15
1511 HARASZTI DANIEL HM-B 312 5:46:13.7 2:14:19
1512 SCHNEIDER THIERRY HM-D 363 5:46:16.9 2:14:22
1513 CONAN FRANCK HM-B 313 5:46:22.4 2:14:27
1514 CHARPENTIER CHRISTOPHE HM-C 519 5:46:26.5 2:14:31
1515 RIVIERE JEAN PIERRE HM-D 364 5:46:27.4 2:14:32
1516 BERNARD JEAN CLAUDE HM-D 365 5:46:34.8 2:14:40
1517 PORTET JEROME HM-C 520 5:46:41.5 2:14:46
1518 ORTOLAN JEAN BAPTISTE HM-E 168 5:46:48.9 2:14:54
1519 PRETI PATRICE HM-D 366 5:46:57.5 2:15:02
1520 PEREZ RENE HM-E 169 5:47:11.1 2:15:16
1521 PIQUEMAL ALAIN HM-D 367 5:47:11.5 2:15:16
1522 BRIDON ERIC HM-A 103 5:47:15.6 2:15:21
1523 GUITARD THIBAUD HM-B 314 5:47:18.8 2:15:24
1524 MEYNOT LOUIS HM-E 170 5:47:21.4 2:15:26
1525 GAYZARD CHRISTIAN HM-D 368 5:48:03.0 2:16:08
1526 PECHBERTY MATTHIEU HM-C 521 5:48:20.3 2:16:25
1527 STANTON DAVID HM-E 171 5:48:23.6 2:16:29
1528 TICO MICHEL HM-E 172 5:48:49.2 2:16:54
1529 GHIRARDI GUILLAUME HM-A 104 5:48:52.2 2:16:57
1530 ANDIGNAC ALAIN HM-D 369 5:48:58.8 2:17:04
1531 MOUGENEL FABRICE HM-C 522 5:48:59.4 2:17:04
1532 DUPUY JEAN PAUL HM-D 370 5:49:14.0 2:17:19
1533 DEJEAN ERNEST HM-D 371 5:49:21.5 2:17:27
1534 THOUY SERGE HM-C 523 5:49:23.0 2:17:28
1535 LYSTARD JEAN PIERRE HM-E 173 5:49:26.8 2:17:32
1536 DUCOS BERNARD HM-E 174 5:49:31.7 2:17:37
1537 AMIEL GUY HM-D 372 5:49:42.7 2:17:48
1538 MONSARRAT GERARD HM-E 175 5:50:31.4 2:18:36
1539 BOURNIQUEL LAURENT HM-B 315 5:50:52.4 2:18:57
1540 ESCOUBAS MARC HM-C 524 5:50:55.4 2:19:00
1541 MILLIES JEAN FRANCOIS HM-D 373 5:50:58.2 2:19:03
1542 SPERTINO JEAN FRANCOIS HM-C 525 5:51:14.8 2:19:20
1543 LEUVREY MICHEL HM-E 176 5:51:21.8 2:19:27
1544 LATRY JACQUES HM-D 374 5:51:31.5 2:19:36
1545 ANDRIEU JEAN LOUIS HM-C 526 5:51:37.0 2:19:42
1546 GUDSELL GEOFF HM-E 177 5:51:45.3 2:19:50
1547 FERRAND MICHEL HM-E 178 5:51:54.9 2:20:00
1548 TAILLEFER PIERRE JEAN HM-A 105 5:51:57.4 2:20:02
1549 BARRIE HERVE HM-D 375 5:52:09.2 2:20:14
1550 DUPPI DANIEL HM-C 527 5:52:09.7 2:20:15
1551 PECHARMAN ERIC HM-C 528 5:52:13.7 2:20:19
1552 MONSALLIE JEAN MARC HM-B 316 5:52:32.5 2:20:37
1553 VOGRINCIC CHRISTOPHE HM-B 317 5:52:53.1 2:20:58
1554 DUPUIS JOSE HM-C 529 5:53:13.6 2:21:19
1555 VERGNON MARCEL HM-D 376 5:53:14.0 2:21:19
1556 GIORGETTI SYLVAIN HM-D 377 5:53:22.0 2:21:27
1557 SICRE SERGE HM-C 530 5:53:23.8 2:21:29
1558 DEMANY PHILIPPE HM-E 179 5:53:37.9 2:21:43
1559 MUR JACQUES HM-D 378 5:53:39.9 2:21:45
1560 VERDEIL YVES HM-D 379 5:53:49.6 2:21:55
1561 CUGNASSE JEAN PIERRE HM-E 180 5:53:51.7 2:21:57
1562 FLAMAN ANDRE HM-D 380 5:53:56.0 2:22:01
1563 ROSSI JACQUES HM-C 531 5:53:57.4 2:22:02
1564 ROUSSEL FRANCK HM-C 532 5:53:57.7 2:22:03
1565 TAUPIAC CHRISTIAN HM-E 181 5:53:58.3 2:22:03
1566 CODINACHS MONTSERRAT DM-W1 10 5:54:01.0 2:22:06
1567 MONTAGUT THIERRY HM-C 533 5:54:01.3 2:22:06
1568 LAVILLE JEAN FRANCOIS HM-C 534 5:54:01.4 2:22:06
1569 NONY FRANCK HM-C 535 5:54:01.5 2:22:06
1570 JUTGE ERIC HM-C 536 5:54:01.8 2:22:07
1571 SCHOENBACH SANDRA DM-W1 11 5:54:23.0 2:22:28
1572 BRUNET JEAN JACQUES HM-E 182 5:54:24.9 2:22:30
1573 BREMAUD SANDRINE DM-W2 15 5:54:32.8 2:22:38
1574 GRIALOU FRANCIS HM-C 537 5:54:33.1 2:22:38
1575 DAUPHIN JEAN PAUL HM-C 538 5:54:44.5 2:22:49
1576 PUSO JACKY HM-E 183 5:54:47.0 2:22:52
1577 LAURENT JEAN CLAUDE HM-D 381 5:54:48.4 2:22:53
1578 SOUBIES JEAN LUC HM-D 382 5:54:49.9 2:22:55
1579 LABANDIBAR BERNARD HM-C 539 5:54:53.1 2:22:58
1580 BOYENVAL JEAN PIERRE HM-C 540 5:54:56.6 2:23:02
1581 BONNAL JEAN CLAUDE HM-D 383 5:55:03.8 2:23:09
1582 SUTTER JEAN CLAUDE HM-D 384 5:55:06.1 2:23:11
1583 URKIA ETXABE JON HM-D 385 5:55:14.2 2:23:19
1584 HOO JEAN HM-D 386 5:55:15.7 2:23:21
1585 GORRY PHILLIPE HM-D 387 5:55:24.9 2:23:30
1586 RABASA ROBERT HM-D 388 5:55:27.3 2:23:32
1587 LAURENS MICHEL HM-D 389 5:55:35.3 2:23:40
1588 FILTNER LIONEL HM-D 390 5:55:45.4 2:23:50
1589 GUERIF JEAN BERNARD HM-E 184 5:55:46.3 2:23:51
1590 BEYRIA DAVID HM-C 541 5:55:48.8 2:23:54
1591 MARCILLE BERTRAND HM-C 542 5:55:54.0 2:23:59
1592 ROUIRE JEAN PIERRE HM-D 391 5:55:54.4 2:23:59
1593 PICARD PHILIPPE HM-D 392 5:55:59.1 2:24:04
1594 SOULOUMIAC PHILIPPE HM-D 393 5:56:03.0 2:24:08
1596 LE MEZO ALAIN HM-D 394 5:56:43.0 2:24:48
1597 LE MEZO NICOLE DM-W3 11 5:56:43.3 2:24:48
1598 LOPEZ CHOCARRO IGNACIO HM-C 544 5:56:48.3 2:24:53
1599 BANZO JEAN HM-C 545 5:56:56.1 2:25:01
1600 BANZO PHILIPPE HM-C 546 5:56:56.8 2:25:02
1601 BUC CHRISTOPHE HM-B 318 5:56:59.7 2:25:05
1602 BAYCHE FLORENT HM-A 106 5:57:17.3 2:25:22
1603 REY HENRI HM-E 185 5:57:22.3 2:25:27
1604 OLIVERAS JOAQUIM HM-C 547 5:57:23.7 2:25:29
1605 FERRE CHRISTOPHE HM-C 548 5:57:27.7 2:25:33
1606 CAPDEVILLE ETIENNE HM-E 186 5:57:29.2 2:25:34
1607 ASTRUC FRANCIS HM-E 187 5:57:31.2 2:25:36
1608 SWIERCZYNSKI PASCAL HM-C 549 5:57:32.5 2:25:37
1609 BESSON JACQUELINE DM-W3 12 5:57:39.3 2:25:44
1610 BIELLE GERARD HM-E 188 5:57:41.9 2:25:47
1611 BARDY CLAUDE HM-E 189 5:57:44.7 2:25:50
1612 GUILLIOT PHILIPPE HM-D 395 5:58:02.6 2:26:08
1613 SOUYRIS LAURENT HM-B 319 5:58:06.2 2:26:11
1614 SANCHEZ CHRISTIAN HM-D 396 5:58:11.4 2:26:16
1615 TOUZANNE MICHEL HM-C 550 5:58:41.6 2:26:47
1616 ESCAIG CHARLES HM-E 190 5:58:53.8 2:26:59
1617 CHARCOSSET PIERRE HM-B 320 5:58:55.6 2:27:01
1618 ESTANG JACQUES HM-E 191 5:58:55.8 2:27:01
1619 CAMPISTRO LEON HM-E 192 5:59:09.3 2:27:14
1620 VERNON BRUNO HM-D 397 5:59:10.2 2:27:15
1621 HERNANDEZ JEAN MICHEL HM-C 551 5:59:13.7 2:27:19
1622 CASTAING GILLES HM-D 398 5:59:14.7 2:27:20
1623 FABRE JEAN PIERRE HM-D 399 5:59:15.7 2:27:21
1624 DEDIEU ANDRE HM-D 400 5:59:17.7 2:27:23
1625 ESTREMS SERGE HM-C 552 5:59:25.9 2:27:31
1626 MONS XAVIER HM-C 553 5:59:31.6 2:27:37
1627 ALBY ALAIN HM-D 401 5:59:34.9 2:27:40
1628 GERBELOT MICHEL HM-D 402 5:59:42.0 2:27:47
1629 LABERTY CATHY DM-W2 16 5:59:44.8 2:27:50
1630 DEMOY CATHERINE DM-W2 17 6:00:13.4 2:28:18
1631 LEGODEC JACQUES HM-D 403 6:00:18.0 2:28:23
1632 MAZAS CHRISTIAN HM-D 404 6:00:19.6 2:28:25
1633 DUFFAU PHILIPPE HM-C 554 6:00:26.4 2:28:31
1634 CABANDE WILLIAM HM-B 321 6:00:31.4 2:28:36
1635 KESSE GREGORY HM-B 322 6:00:35.0 2:28:40
1636 DA CUNHA FERNAND HM-C 555 6:00:35.9 2:28:41
1637 CELHAY ERIC HM-C 556 6:00:37.7 2:28:43
1638 BOUTONNET GUY HM-E 193 6:00:40.3 2:28:45
1639 VIGUIER LAURENT HM-C 557 6:00:51.6 2:28:57
1640 BERNARD CLAUDE HM-D 405 6:00:57.8 2:29:03
1641 LARNAUDIE JEAN MICHEL HM-D 406 6:01:07.4 2:29:12
1642 HALL BRIAN HM-D 407 6:01:07.9 2:29:13
1643 GONZALEZ ANTOINE HM-E 194 6:01:21.9 2:29:27
1644 VIGUIE JEAN CLAUDE HM-E 195 6:01:25.1 2:29:30
1645 CALERA RICARDO HM-D 408 6:01:26.9 2:29:32
1646 SAURAT CLAUDE HM-E 196 6:01:29.6 2:29:35
1647 SOULOUMIAC SERGE HM-D 409 6:01:41.8 2:29:47
1648 AMAT PHILIPPE HM-C 558 6:01:59.2 2:30:04
1649 FILHASTRE JEAN PIERRE HM-D 410 6:02:08.5 2:30:13
1650 RENNE JANY HM-D 411 6:02:19.6 2:30:25
1651 NICOLOSO JEAN LUC HM-C 559 6:02:37.2 2:30:42
1652 TISSENDIE JEAN JACQUES HM-C 560 6:03:01.6 2:31:07
1653 BEGUE FABIEN HM-A 107 6:03:07.8 2:31:13
1654 VIDAL MICHEL HM-D 412 6:03:12.1 2:31:17
1655 IDRAC SERGE HM-D 413 6:03:12.5 2:31:17
1656 ASTRIC GEORGES HM-B 323 6:03:15.9 2:31:21
1657 DOAN JEAN FRANCOIS HM-D 414 6:03:16.7 2:31:22
1658 SILOBRE MICHEL HM-C 561 6:03:28.7 2:31:34
1659 FOUSSARD JEAN CLAUDE HM-E 197 6:03:29.6 2:31:35
1660 PICAURON FREDERIC HM-D 415 6:03:32.6 2:31:38
1661 CHAUVEAU CHRISTIAN HM-D 416 6:03:42.2 2:31:47
1662 DEJEAN MICHEL HM-E 198 6:03:46.6 2:31:52
1663 BAQUE SEBASTIEN HM-B 324 6:03:55.1 2:32:00
1664 GIRARD FRANCIS HM-E 199 6:04:04.8 2:32:10
1665 ZUBIATE GUY HM-D 417 6:04:22.6 2:32:28
1666 MURILLO BERTRAND HM-A 108 6:04:51.2 2:32:56
1667 DURAND JEAN FRANCOIS HM-D 418 6:04:59.4 2:33:04
1668 SCARFONE SANDRINE HM-B 325 6:05:09.8 2:33:15
1669 VILCOCQ JEAN MARC HM-D 419 6:05:21.5 2:33:26
1670 VIRONNEAU GERARD HM-D 420 6:05:23.8 2:33:29
1671 BOISSIER LAURENT HM-C 562 6:05:37.0 2:33:42
1672 BLANQUET MICHEL HM-C 563 6:05:37.6 2:33:43
1673 CALVO CLAUDE HM-D 421 6:05:46.1 2:33:51
1674 MAUGARD CHRISTOPHE HM-B 326 6:05:55.5 2:34:00
1675 COSTE GERARD HM-D 422 6:05:57.4 2:34:02
1676 THOMSON MIKE HM-C 564 6:06:02.7 2:34:08
1677 ABABSA MOHAMED HM-C 565 6:06:04.4 2:34:09
1678 BON ALEXANDRE HM-B 327 6:06:11.3 2:34:16
1679 SUSA HENRI HM-D 423 6:06:16.5 2:34:21
1680 FOURCADE JEAN CLAUDE HM-E 200 6:06:26.0 2:34:31
1681 MARANGE CHRISTOPHE HM-D 424 6:06:26.4 2:34:31
1682 TOSI MICHEL HM-E 201 6:06:27.4 2:34:32
1683 BERGON PATRICK HM-C 566 6:06:29.3 2:34:34
1684 TOUZANNE LAURENT HM-E 202 6:06:48.0 2:34:53
1685 GOJON MICHEL HM-E 203 6:06:53.6 2:34:59
1686 DUNET NICOLAS HM-B 328 6:06:55.7 2:35:01
1687 RUMEAU ERIC HM-B 329 6:07:02.5 2:35:07
1688 SALIOU MICHEL HM-D 425 6:07:16.9 2:35:22
1689 MARTINEZ DOMINIQUE HM-B 330 6:07:22.1 2:35:27
1690 TERRON JOSE HM-B 331 6:07:22.3 2:35:27
1691 GENOLINI BRIGITTE DM-W2 18 6:07:35.3 2:35:40
1692 GENOLINI JEAN PAUL HM-D 426 6:07:35.3 2:35:40
1693 BRUNEL ALAIN HM-E 204 6:07:37.6 2:35:43
1694 HADROT PORTES VALERIE DM-W2 19 6:07:56.0 2:36:01
1695 LASTISNERES FRANCIS HM-D 427 6:08:09.6 2:36:15
1696 PINTO LUIS HM-B 332 6:08:10.8 2:36:16
1697 DOULIEZ JEAN LUC HM-B 333 6:08:13.3 2:36:18
1698 HERBAUT THIERRY HM-B 334 6:08:17.5 2:36:22
1699 KACZMAREK DOMINIQUE HM-D 428 6:08:17.8 2:36:23
1700 LE BRIS PASCAL HM-C 567 6:08:20.1 2:36:25
1701 CAUSSE BERTRAND HM-C 568 6:08:22.0 2:36:27
1702 HARMELLE PHILIPPE HM-C 569 6:08:27.8 2:36:33
1703 PEAUCELLIER PIERRE HM-D 429 6:08:35.0 2:36:40
1704 RIHN ERIC HM-C 570 6:08:52.4 2:36:57
1705 GAUBERT BENOIT HM-E 205 6:08:53.3 2:36:58
1706 LEFRANCOIS THOMAS HM-B 335 6:08:54.5 2:36:59
1707 CAZALES GERARD HM-E 206 6:09:08.5 2:37:13
1708 ROSET BRUNO HM-C 571 6:09:11.7 2:37:17
1711 SERIES JEAN CLAUDE HM-E 207 6:09:56.6 2:38:02
1712 MARTY BERNARD HM-E 208 6:10:03.6 2:38:09
1713 DUPPI MICHEL HM-E 209 6:10:24.2 2:38:29
1714 CORTIAL PATRICK HM-C 573 6:10:26.7 2:38:32
1715 NEVEU PHILIPPE HM-D 430 6:10:28.5 2:38:34
1716 CASOLIVA JACQUELINE DM-W3 13 6:10:28.9 2:38:34
1717 LE GUELLEC FRANCOISE DM-W2 20 6:10:29.7 2:38:35
1718 CAZOTTES DIDIER HM-C 574 6:10:31.2 2:38:36
1719 FERNANDEZ BERNARD HM-D 431 6:10:34.7 2:38:40
1720 TORTOSA JOSE HM-B 336 6:10:37.9 2:38:43
1721 BERGERY SEBASTIEN HM-B 337 6:10:42.4 2:38:47
1722 MARTY PHILIPPE HM-D 432 6:10:46.1 2:38:51
1723 RENOU BRUNO HM-C 575 6:10:46.7 2:38:52
1724 LACAZE ROBERT HM-D 433 6:10:50.1 2:38:55
1725 FAUR SERGE HM-D 434 6:10:50.6 2:38:56
1726 KACZAN DIDIER HM-C 576 6:11:08.4 2:39:13
1727 BOUTGES LAURENT HM-B 338 6:11:28.4 2:39:33
1728 THEBAUD CHRISTOPHE HM-C 577 6:11:31.3 2:39:36
1729 BORDIGNON JEAN PIERRE HM-D 435 6:11:39.4 2:39:44
1730 GARCIA LUCIEN HM-C 578 6:11:41.0 2:39:46
1731 REBEYROL JEROME HM-B 339 6:11:43.5 2:39:48
1732 MONNIER CHRISTOPHE HM-C 579 6:11:51.7 2:39:57
1733 DURAND CLAUDINE DM-W3 14 6:11:59.1 2:40:04
1734 BANASCO DANIEL HM-D 436 6:12:18.5 2:40:23
1735 ARDAILLOU JOEL HM-C 580 6:12:23.0 2:40:28
1736 COROMINAS DANIEL HM-E 210 6:12:24.2 2:40:29
1737 FAGES CHRISTIAN HM-D 437 6:12:34.9 2:40:40
1738 LABERDURE BERNARD HM-E 211 6:12:38.4 2:40:43
1739 MONFRAIX JACQUES HM-C 581 6:13:05.9 2:41:11
1740 CROT PHILIPPE HM-C 582 6:13:13.4 2:41:18
1741 STEPHAN DOMINIQUE HM-D 438 6:13:13.5 2:41:18
1742 BOUCABEILLE FRANCIS HM-E 212 6:13:15.2 2:41:20
1743 MORANNE FRANCOIS HM-E 213 6:13:16.4 2:41:21
1744 ROSSI PASCAL HM-B 340 6:13:16.8 2:41:22
1745 COUSYN JACQUES HM-D 439 6:13:16.8 2:41:22
1746 COUSTEL PHILIPPE HM-C 583 6:13:35.6 2:41:41
1747 ABRIBAT CHRISTIAN HM-D 440 6:13:37.9 2:41:43
1748 MAUPEU CHRISTOPHE HM-B 341 6:14:01.6 2:42:07
1749 VIEU THIERRY HM-C 584 6:14:04.6 2:42:10
1750 PEREZ FREDERIC HM-B 342 6:14:09.8 2:42:15
1751 DELRIEU GUY HM-D 441 6:14:10.5 2:42:15
1752 BOUSQUET GERARD HM-E 214 6:14:14.6 2:42:20
1753 LATORRE ANTOINE HM-D 442 6:14:26.6 2:42:32
1754 LOCCI SERGE HM-D 443 6:14:34.1 2:42:39
1755 LAURENT MARC HM-B 343 6:14:44.8 2:42:50
1756 BANDINELLI ERIC HM-C 585 6:15:00.1 2:43:05
1757 FABER JEAN MICHEL HM-D 444 6:15:06.8 2:43:12
1758 LAFUGE JACQUES HM-D 445 6:15:07.5 2:43:12
1759 DARBAS JACQUES HM-D 446 6:15:10.6 2:43:16
1760 BAUDIN PIERRE HM-E 215 6:15:18.8 2:43:24
1761 ALIBEU LAURENT HM-C 586 6:15:22.4 2:43:27
1762 CLEMENTINE FULBERT HM-C 587 6:15:23.6 2:43:29
1763 NILEON JEAN PIERRE HM-D 447 6:15:28.8 2:43:34
1764 KALASZ ARNAUD HM-B 344 6:15:33.5 2:43:38
1765 PELLETIER RENE HM-C 588 6:15:34.3 2:43:39
1766 MORALES SALVADOR HM-E 216 6:16:01.7 2:44:07
1767 GALATRY JEAN FRANCOIS HM-C 589 6:16:03.0 2:44:08
1768 DECRET JACQUES HM-E 217 6:16:03.6 2:44:09
1769 CAZENAVE JEAN HM-D 448 6:16:07.1 2:44:12
1770 CHALLET THIERRY HM-C 590 6:16:19.5 2:44:24
1771 DOUMENG MICHEL HM-E 218 6:16:30.0 2:44:35
1772 LERAT JACQUES HM-E 219 6:16:36.0 2:44:41
1773 CABANEL ANDRE HM-E 220 6:17:00.4 2:45:05
1774 COSTASECA HENRI HM-E 221 6:17:13.8 2:45:19
1775 GINER BRUNO HM-C 591 6:17:15.5 2:45:21
1776 BONALDO FRANCIS HM-D 449 6:17:17.9 2:45:23
1777 PROTEAU GERARD HM-E 222 6:18:11.1 2:46:16
1778 GLEONEC MICHEL HM-E 223 6:18:27.9 2:46:33
1779 BADOC SERGE HM-D 450 6:18:35.7 2:46:41
1780 DESBARATS JEAN LOUIS HM-D 451 6:18:36.8 2:46:42
1781 SEGUELAS PHILIPPE HM-C 592 6:18:48.8 2:46:54
1782 SEGUELAS SABINE DM-W2 21 6:18:49.0 2:46:54
1783 THEVENIN JEAN HM-D 452 6:18:49.1 2:46:54
1784 PETRO ALAIN HM-E 224 6:19:04.1 2:47:09
1785 AMIEL JEAN LOUIS HM-E 225 6:19:15.9 2:47:21
1786 SOLER JOSEP MIQUEL HM-C 593 6:19:25.0 2:47:30
1787 BONNEMORT CHRISTOPHE HM-C 594 6:19:29.5 2:47:34
1788 FORGET MARIE PAULE DM-W2 22 6:19:45.4 2:47:50
1789 DELPY MICHEL HM-E 226 6:19:46.3 2:47:51
1790 THOMAS STEPHEN HM-C 595 6:19:50.3 2:47:55
1791 PIQUEMAL JEAN CHRISTOPHE HM-C 596 6:19:50.9 2:47:56
1792 SANT JACQUES HM-D 453 6:19:52.0 2:47:57
1793 AUDABRAM PATRICK HM-E 227 6:20:06.9 2:48:12
1794 MENEZES JEAN LOUIS HM-E 228 6:20:10.7 2:48:16
1795 BLANCO NEBREDA EMILIO HM-C 597 6:20:29.2 2:48:34
1796 FERRIE LUDOVIC HM-A 109 6:20:37.2 2:48:42
1797 LABAT JEAN LUC HM-D 454 6:20:39.6 2:48:45
1798 VILA GEORGES HM-E 229 6:20:42.2 2:48:47
1799 CORRAL TORRES RAUL HM-B 345 6:20:42.7 2:48:48
1800 BOUSQUET BENOIT HM-D 455 6:20:59.0 2:49:04
1801 BEZES ALAIN HM-D 456 6:21:02.0 2:49:07
1802 CARAYOL JEAN MARIE HM-D 457 6:21:04.2 2:49:09
1803 LACANAL CHRISTIAN HM-D 458 6:21:05.3 2:49:10
1804 PRUDHOMME BERNARD HM-D 459 6:21:07.0 2:49:12
1805 BIGOT CHRISTIAN HM-D 460 6:21:30.2 2:49:35
1806 VALETTE MICHEL HM-E 230 6:21:51.7 2:49:57
1807 GUERIN ALEXANDRE HM-B 346 6:21:51.8 2:49:57
1808 CAZALS PATRICK HM-C 598 6:21:54.6 2:50:00
1809 BRISBART THIERRY HM-B 347 6:21:59.6 2:50:05
1810 BONNIER FRANCOIS HM-B 348 6:22:01.7 2:50:07
1811 POINTET LAURENT HM-B 349 6:22:08.4 2:50:13
1812 BOS FRANCOIS HM-C 599 6:22:24.2 2:50:29
1813 KUNAKEY SANDRINE DM-W2 23 6:22:51.5 2:50:56
1814 PONTIE MICHEL HM-E 231 6:22:52.8 2:50:58
1815 EYCHENNE JACQUES HM-E 232 6:23:03.5 2:51:08
1816 VALVERDE JOSEPH HM-C 600 6:23:03.6 2:51:09
1817 FERRE JEAN LUC HM-C 601 6:23:10.4 2:51:15
1818 VANDERWALMEN LUC CARLOS HM-E 233 6:23:19.3 2:51:24
1819 ROZON FRANCOIS HM-D 461 6:23:35.0 2:51:40
1820 BOUSQUET JEAN LUC HM-C 602 6:23:35.3 2:51:40
1821 SARRAT FREDERIC HM-C 603 6:23:35.5 2:51:40
1822 LARTIGUE JEAN PIERRE HM-E 234 6:23:42.4 2:51:47
1823 LARTIGUE MARYSE DM-W3 15 6:23:43.4 2:51:48
1824 DESPIERRIS PIERRE HM-D 462 6:23:55.2 2:52:00
1825 MARIE ERIC HM-D 463 6:24:09.7 2:52:15
1826 GACHIES RENE HM-E 235 6:24:21.4 2:52:26
1827 SEGOVIA SATURNIN HM-E 236 6:24:46.6 2:52:52
1828 VANDERVLIST HARRY HM-C 604 6:24:55.2 2:53:00
1829 RAZOU CHRISTIAN HM-D 464 6:24:56.7 2:53:02
1830 MARTINS MANUEL HM-B 350 6:25:23.5 2:53:28
1831 BISCAY OLIVIER HM-C 605 6:25:49.0 2:53:54
1832 VERDIER CHRISTIAN HM-C 606 6:25:54.9 2:54:00
1833 MANYI YANNICK HM-C 607 6:26:12.3 2:54:17
1834 FIGUEIRA JORIS HM-A 110 6:26:17.2 2:54:22
1835 DAUJEAN CHRISTIAN HM-D 465 6:26:23.5 2:54:28
1836 COUMES LAUCATE JEAN RAYMOND HM-C 608 6:26:34.2 2:54:39
1837 TREMON ALEXANDRE HM-B 351 6:26:38.6 2:54:44
1838 LAFFONT HERVE HM-B 352 6:26:39.8 2:54:45
1839 CISTAC JACQUES HM-E 237 6:26:46.1 2:54:51
1840 FORNOS MARC HM-C 609 6:26:57.0 2:55:02
1841 BERTHONNAUD HENRI HM-D 466 6:26:58.1 2:55:03
1842 RALLIERES BERNARD HM-E 238 6:27:08.0 2:55:13
1843 BAUTISTA DIEGO HM-D 467 6:27:08.8 2:55:14
1844 FORNOS PATRICK HM-C 610 6:27:10.9 2:55:16
1845 DOUZAL ERIC HM-B 353 6:27:11.4 2:55:16
1846 LAUDE MARC HM-B 354 6:27:24.4 2:55:29
1847 POUMADERE ALAIN HM-D 468 6:27:44.8 2:55:50
1848 GUILLEM FREDERIC HM-C 611 6:27:53.5 2:55:58
1849 PEZZOT MICHEL HM-D 469 6:27:58.3 2:56:03
1850 PARAIRE GERARD HM-D 470 6:28:04.7 2:56:10
1851 ABADIE ANDRE HM-E 239 6:28:13.3 2:56:18
1852 BARBIER THOMAS HM-C 612 6:28:33.0 2:56:38
1853 CAUMES MICHEL HM-E 240 6:28:33.9 2:56:39
1854 FASOLATO CHRISTIAN HM-D 471 6:28:42.8 2:56:48
1855 MARCHESIN MICHEL HM-E 241 6:28:54.1 2:56:59
1856 ROUGE MICHELE DM-W3 16 6:29:22.6 2:57:28
1857 BRAZEILLES CLAUDE HM-D 472 6:29:36.4 2:57:41
1858 TREMEGE DANIEL HM-D 473 6:29:40.2 2:57:45
1859 BIANCHI JEAN CLAUDE HM-E 242 6:29:52.9 2:57:58
1860 MARTIN GERALD HM-B 355 6:30:08.3 2:58:13
1861 PIQUEMAL CLAUDE HM-E 243 6:30:20.4 2:58:25
1862 CHARRA STEPHANE HM-B 356 6:30:37.6 2:58:43
1863 CAMPAGNE PHILIPPE HM-D 474 6:30:41.1 2:58:46
1864 CALMEL PHILIPPE HM-D 475 6:30:43.5 2:58:48
1865 VILLANOVA JEAN PIERRE HM-D 476 6:30:59.8 2:59:05
1866 GLEESON FRANK HM-D 477 6:31:04.7 2:59:10
1867 LEDIG PHILIPPE HM-C 613 6:31:11.4 2:59:16
1868 COUMELONGUE BERNARD HM-D 478 6:31:12.3 2:59:17
1869 PICAVET STEPHANE HM-C 614 6:31:25.7 2:59:31
1870 SARDA MICHEL ALBAN HM-E 244 6:31:29.4 2:59:34
1871 BOUCHAUD PIERRE HM-D 479 6:31:47.2 2:59:52
1872 OUSTRY JEAN LUC HM-D 480 6:32:06.5 3:00:11
1873 ANDRIEU PIERRE HM-D 481 6:32:07.6 3:00:13
1874 VERZENI LIONEL HM-C 615 6:32:36.5 3:00:42
1875 LAMY CHARRIER FRANK HM-D 482 6:32:40.2 3:00:45
1876 DIOGO SERGE HM-D 483 6:33:26.7 3:01:32
1877 VINOUIZE OLIVIER HM-D 484 6:33:42.6 3:01:48
1878 HENEAU THIERRY HM-C 616 6:33:47.3 3:01:52
1879 ANCAUSSE ALAIN HM-D 485 6:33:54.4 3:01:59
1880 ROQUES DOMINIQUE HM-C 617 6:34:19.5 3:02:25
1881 FIGUEIRA JOSE HM-D 486 6:34:24.0 3:02:29
1882 DOUCHIN NICOLAS HM-C 618 6:34:25.1 3:02:30
1883 GRIJALVO JEAN CLAUDE HM-E 245 6:34:32.7 3:02:38
1884 GIRARDI ROBERT HM-D 487 6:35:02.9 3:03:08
1885 BLEY THIERRY HM-C 619 6:35:26.3 3:03:31
1886 ROUET MICHEL HM-C 620 6:35:34.2 3:03:39
1887 GONCALVES FREDERIC MINEUR 5 6:35:38.9 3:03:44
1888 ZAMBANO CLAUDE HM-D 488 6:35:41.3 3:03:46
1889 LARRIBERE HERICK HM-D 489 6:35:43.7 3:03:49
1890 MARTY SYLVIE DM-W2 24 6:35:50.3 3:03:55
1891 VESZ ALAIN HM-D 490 6:35:56.5 3:04:01
1892 PASTRE JACQUES HM-D 491 6:36:10.1 3:04:15
1893 COMPTE FLOREAL HM-D 492 6:36:17.6 3:04:23
1894 LE CADELEC ALAIN HM-D 493 6:36:46.1 3:04:51
1895 BLANQUET CYPRIEN HM-D 494 6:36:48.7 3:04:54
1896 BOUZIN CHRISTIAN HM-D 495 6:36:51.2 3:04:56
1897 JUTGLA VALLDEPERAS ANTONI HM-D 496 6:37:06.8 3:05:12
1898 NOYEE PATRICK HM-C 621 6:37:08.6 3:05:14
1899 QUENESCOURT GHISLAINE DM-W3 17 6:37:16.3 3:05:21
1900 PRINCE PATRICK HM-E 246 6:37:17.8 3:05:23
1901 NAVARRA NADINE DM-W2 25 6:37:22.9 3:05:28
1902 QUIJO RENE HM-D 497 6:37:28.3 3:05:33
1903 LOZANO JEAN MARIE HM-E 247 6:37:29.1 3:05:34
1904 DIOT ALAIN HM-C 622 6:37:50.5 3:05:55
1905 LISETTO ALAIN HM-D 498 6:38:01.1 3:06:06
1906 PECHARMAN DIDIER HM-D 499 6:38:29.6 3:06:35
1907 GARCIA MICHEL HM-C 623 6:38:35.2 3:06:40
1908 SANCHEZ PATRICK HM-C 624 6:38:36.7 3:06:42
1909 MOULY SERGE HM-C 625 6:39:24.2 3:07:29
1910 GIRAUDEAU MARC HM-D 500 6:39:45.2 3:07:50
1911 DESPAUX PATRICK HM-B 357 6:39:51.5 3:07:57
1912 CARTEAUD DANIEL HM-E 248 6:40:09.8 3:08:15
1913 PREDINE CHRISTIAN HM-E 249 6:40:15.0 3:08:20
1914 BONNET BERNARD HM-D 501 6:40:46.6 3:08:52
1915 MONSARRAT JACQUES HM-D 502 6:41:30.6 3:09:36
1916 CAVAREC ANDRE HM-E 250 6:41:32.3 3:09:37
1917 RICHOU PAUL HM-E 251 6:41:52.1 3:09:57
1918 PONCE YVES HM-E 252 6:41:56.3 3:10:01
1919 GUILLOBEZ BERNADETTE DM-W3 18 6:42:15.4 3:10:20
1920 VIOUJAS DAVID HM-B 358 6:42:29.9 3:10:35
1921 FAGEDET JULIEN HM-E 253 6:43:00.5 3:11:05
1922 SOULIE REGIS HM-D 503 6:43:10.8 3:11:16
1923 BILHERAN YVAN HM-D 504 6:43:17.0 3:11:22
1924 PEREZ MANUEL HM-D 505 6:43:28.6 3:11:34
1925 DARAUT CHRISTOPHE HM-C 626 6:43:36.8 3:11:42
1926 PUJOL CLAUDE HM-E 254 6:43:48.7 3:11:54
1927 ESCAFFRE PIERRE HM-B 359 6:43:54.6 3:12:00
1928 DEDIEU PAUL HM-E 255 6:44:30.0 3:12:35
1929 GRANDRY HERVE HM-C 627 6:44:42.1 3:12:47
1930 BONNET FRANCOISE DM-W3 19 6:44:46.7 3:12:52
1931 PECHARMAN FRANCIS HM-C 628 6:45:01.1 3:13:06
1932 LABEYRIE PATRICK HM-D 506 6:45:22.2 3:13:27
1933 DELAVEAU REGIS HM-B 360 6:45:45.0 3:13:50
1934 DAUGERON BRICE HM-B 361 6:45:45.7 3:13:51
1935 MALET GILLES HM-A 111 6:45:59.4 3:14:04
1936 CARAYON FRANCIS HM-D 507 6:46:01.0 3:14:06
1937 BOTHIAN JEAN JACQUES HM-E 256 6:46:06.8 3:14:12
1938 SEGUELA PHILIPPE HM-B 362 6:46:18.4 3:14:23
1939 VEYSSIERE JACQUES HM-E 257 6:46:27.7 3:14:33
1940 REES NIGEL HM-D 508 6:46:29.5 3:14:35
1941 FOURNIL JEAN MICHEL HM-D 509 6:47:00.3 3:15:05
1942 MAIRESSE STEPHANE HM-C 629 6:47:00.8 3:15:06
1943 CAPDEVILLE JEAN HM-E 258 6:47:11.5 3:15:16
1944 CALBET SYLVAIN HM-D 510 6:47:13.6 3:15:19
1945 DE LA SAUVAGERE JOSE HM-C 630 6:47:20.9 3:15:26
1946 MOULLIN JEAN FRANCOIS HM-D 511 6:47:47.5 3:15:52
1948 TOLEDO LOUIS HM-D 512 6:48:04.1 3:16:09
1949 ROBERT JEAN HM-E 259 6:48:05.8 3:16:11
1950 TOLEDO RAPHAEL HM-D 513 6:48:05.8 3:16:11
1951 MANTELET ALAIN HM-C 631 6:48:19.4 3:16:24
1952 CASSAN ERIC HM-C 632 6:48:30.6 3:16:36
1953 MORAINVILLERS JACKIE HM-D 514 6:48:32.0 3:16:37
1954 MARMORAT ERIC HM-B 363 6:48:33.2 3:16:38
1955 COURJAUD BERNARD HM-E 260 6:48:58.6 3:17:04
1956 POUDOU JOSETTE DM-W3 20 6:49:11.4 3:17:16
1957 POUDOU REGIS HM-E 261 6:49:15.7 3:17:21
1958 ROQUES PATRICK HM-D 515 6:49:23.1 3:17:28
1959 LETELLIER PHILIPPE HM-D 516 6:49:25.7 3:17:31
1960 BESALDUCH DIDIER HM-D 517 6:49:32.8 3:17:38
1961 FARRUGIA JEAN MARC HM-C 633 6:49:34.1 3:17:39
1962 BARREAU YVES HM-D 518 6:49:51.1 3:17:56
1963 RECIZAC JEAN JACQUES HM-E 262 6:50:09.1 3:18:14
1964 BELLIN ANDRE HM-E 263 6:50:10.9 3:18:16
1965 CASSE ROBERT HM-E 264 6:50:16.8 3:18:22
1966 REGOURD LILIAN HM-C 634 6:50:25.3 3:18:30
1967 MIGUELLOTI ANGE HM-D 519 6:50:33.4 3:18:38
1968 GOUZY ALAIN HM-D 520 6:50:34.5 3:18:39
1969 SANCHEZ NICOLAS HM-C 635 6:50:35.0 3:18:40
1970 JUSTRABO THIERRY HM-C 636 6:51:03.3 3:19:08
1971 MITERNIQUE HUGUETTE DM-W2 26 6:51:29.1 3:19:34
1972 MITERNIQUE LAURENT HM-C 637 6:51:30.0 3:19:35
1973 CANTAN PHILIPPE HM-C 638 6:51:45.9 3:19:51
1974 TAVELLA RENE HM-E 265 6:51:46.6 3:19:52
1975 MASANELL CLAUDE HM-E 266 6:51:58.9 3:20:04
1976 LACOMBE YVES HM-D 521 6:52:12.1 3:20:17
1977 LABORDE DANIEL HM-D 522 6:52:35.1 3:20:40
1978 JORAND THIERRY HM-C 639 6:52:58.2 3:21:03
1979 CUADRADO MICHEL HM-E 267 6:53:04.6 3:21:10
1980 NAULEAU GUY HM-E 268 6:53:28.6 3:21:34
1981 PRADEL MICHEL HM-D 523 6:53:37.8 3:21:43
1982 FILLET PATRICK HM-D 524 6:53:38.1 3:21:43
1983 ALVERDI JEAN LOUIS HM-E 269 6:54:40.5 3:22:45
1984 ROUDIL JACQUES HM-E 270 6:56:15.8 3:24:21
1985 JAMMES PHILIPPE HM-D 525 6:56:15.9 3:24:21
1986 DU PENHOAT YVES HM-D 526 6:56:21.2 3:24:26
1987 DEPREZ ROBERT HM-E 271 6:56:28.3 3:24:33
1988 DOMAIGNE JEAN HM-E 272 6:56:36.6 3:24:42
1989 PRATVIEL DANIEL HM-C 640 6:56:37.1 3:24:42
1990 LARRANAGA ALDALUR AITZOL HM-A 112 6:56:41.3 3:24:46
1991 VIDAL JEAN LOUIS HM-E 273 6:56:50.4 3:24:55
1992 PRATVIEL MICHEL HM-E 274 6:56:54.0 3:24:59
1993 BERENGUER SOLE FRANCISCO HM-D 527 6:56:55.7 3:25:01
1994 MOUSSIER CLAUDE HM-E 275 6:56:57.6 3:25:03
1995 MANYI ERIC HM-C 641 6:57:03.7 3:25:09
1996 BANCQUART HERVE HM-D 528 6:57:29.7 3:25:35
1997 CHAUVET GERARD GERARD HM-E 276 6:57:57.9 3:26:03
1998 PIERA RENE HM-E 277 6:58:32.9 3:26:38
1999 MAUPEU STEPHANE HM-C 642 6:58:43.8 3:26:49
2000 JULIEN GREGORY HM-B 364 6:58:52.8 3:26:58
2001 PETIT MICHEL HM-D 529 6:58:53.5 3:26:59
2002 BAREILLES CHRISTIAN HM-D 530 6:58:54.9 3:27:00
2003 GALBE NURIA DM-W2 27 6:58:58.3 3:27:03
2004 ROQUENCOURT BRUNO HM-D 531 6:59:31.2 3:27:36
2005 MYNGERS PASCAL HM-D 532 6:59:43.0 3:27:48
2006 VELASCO STEPHANE HM-B 365 6:59:52.0 3:27:57
2007 LORANS BERNARD HM-D 533 7:00:01.4 3:28:06
2008 BONICH HERVE HM-C 643 7:01:37.8 3:29:43
2009 CANEVESE PHILIPPE HM-C 644 7:01:42.1 3:29:47
2010 MASANELL GERARD HM-E 278 7:02:04.2 3:30:09
2011 CASOLIVA JEAN FRANCOIS HM-E 279 7:02:46.5 3:30:51
2012 VARONA GREGOIRE HM-B 366 7:03:40.4 3:31:45
2013 LABATUT FREDERIC HM-B 367 7:03:40.5 3:31:46
2014 CARION GUILLAUME HM-B 368 7:03:41.9 3:31:47
2015 FABRE GREGORY HM-B 369 7:03:42.9 3:31:48
2016 VARONA DIDIER HM-D 534 7:03:47.2 3:31:52
2017 EXPERT ARNAUD HM-E 280 7:04:30.7 3:32:36
2018 GASPARINI ROMAIN HM-A 113 7:05:20.7 3:33:26
2019 CAUBET KARINE DM-W1 12 7:05:25.0 3:33:30
2020 RODRIGUEZ THIERRY HM-B 370 7:05:32.9 3:33:38
2021 BILHERAN JEAN PIERRE HM-D 535 7:06:43.9 3:34:49
2022 BOUHET STEPHANE HM-C 645 7:06:44.1 3:34:49
2023 PLOMION NICOLAS HM-B 371 7:08:15.1 3:36:20
2024 LE BOUHELLEC PHILIPPE HM-D 536 7:08:32.0 3:36:37
2025 CAUDERAN BRUNO HM-D 537 7:08:34.6 3:36:40
2026 ALEM LAURENT HM-B 372 7:08:44.7 3:36:50
2027 ROSSO SERGE HM-D 538 7:11:23.4 3:39:28
2028 AUTRET FLORIAN HM-C 646 7:12:21.8 3:40:27
2029 PETIOT BEATRICE DM-W1 13 7:13:31.8 3:41:37
2030 CAZAUX PATRICK HM-C 647 7:13:32.3 3:41:37
2031 GENDRE EMILE HM-E 281 7:13:32.4 3:41:37
2032 LEFRANC ERIC HM-B 373 7:13:33.0 3:41:38
2033 FERRERO ALAIN HM-C 648 7:13:33.9 3:41:39
2034 PUJOL CLAUDE HM-C 649 7:13:35.1 3:41:40
2035 SADOURNY PATRICK HM-C 650 7:13:35.3 3:41:40
2036 SAILLARD FRANCIS HM-C 651 7:13:59.7 3:42:05
2037 SERVAT MURIEL DM-W2 28 7:14:06.5 3:42:11
2038 BRUNET RAOUL HM-D 539 7:16:01.2 3:44:06
2039 STEFANI MARC HM-E 282 7:16:33.1 3:44:38
2040 COLCY MICHEL HM-E 283 7:16:34.4 3:44:39
2041 CHABERT ERIC HM-C 652 7:16:47.7 3:44:53
2042 VALENTINI PASCAL HM-B 374 7:18:18.7 3:46:24
2043 REVERSADE PASCAL HM-C 653 7:19:01.3 3:47:06
2044 HUDYM CECILE DM-W1 14 7:19:16.5 3:47:21
2045 SOFFIATI JEAN LOUIS HM-D 540 7:19:17.7 3:47:23
2046 JALABERT ROGER HM-D 541 7:20:09.8 3:48:15
2047 LAIZOLA LOINAZ ESKARNE DM-W1 15 7:21:43.5 3:49:48
2048 MAZO ARIBE ENEKO HM-B 375 7:21:46.0 3:49:51
2049 MAZO ZUNIGA JOSE MANUEL HM-D 542 7:21:47.7 3:49:53
2050 DAVY PIERRE HM-E 284 7:22:08.2 3:50:13
2051 BRULARD DANIEL HM-E 285 7:22:13.9 3:50:19
2052 DELERY DANIEL HM-E 286 7:22:45.0 3:50:50
2053 DE PRATI JEAN HM-E 287 7:22:47.3 3:50:52
2054 CESCON GILLES HM-C 654 7:24:58.2 3:53:03
2055 RICCI FERNAND HM-E 288 7:25:07.4 3:53:12
2056 ALONSO JEAN MARC HM-C 655 7:25:51.6 3:53:57
2057 BARRIERE ANDRE HM-E 289 7:26:16.9 3:54:22
2058 GAUL PATRICE HM-E 290 7:27:09.3 3:55:14
2059 CRETEAU DOMINIQUE HM-C 656 7:28:01.2 3:56:06
2060 DELSANTI THIERRY HM-C 657 7:28:08.0 3:56:13
2061 ARSEGUET DANIEL HM-E 291 7:29:11.4 3:57:16
2062 MORA FREDERIC HM-A 114 7:30:21.9 3:58:27
2063 ZEROMSKI DOMINIQUE HM-C 658 7:30:28.5 3:58:33
2064 DARBOUSSET JEAN PIERRE HM-D 543 7:31:26.2 3:59:31
2065 ROUSSET LYDIE DM-W3 21 7:31:26.3 3:59:31
2066 DIDIER ERIC HM-C 659 7:32:37.2 4:00:42
2067 GABAUT MICHEL HM-E 292 7:34:12.9 4:02:18
2068 NOUGARET ROBERT HM-D 544 7:34:29.0 4:02:34
2069 TOLSAN FRANCOIS HM-E 293 7:35:03.4 4:03:08
2070 LLAMAS RICHARD HM-D 545 7:35:15.1 4:03:20
2071 MICHELET EMMANUEL HM-A 115 7:38:59.6 4:07:05
2072 ULMET THOMAS HM-A 116 7:38:59.9 4:07:05
2073 SALVETAT GUY HM-E 294 7:40:12.0 4:08:17
2074 GRUFFEILLE GEORGES HM-E 295 7:41:02.0 4:09:07
2075 ARZEUX RUFIN HM-D 546 7:42:32.4 4:10:37
2076 SENO ANTONY HM-B 376 7:44:49.0 4:12:54
2077 GENEFRONT STEPHANE HM-B 377 7:44:57.9 4:13:03
2078 BERENGUER JEAN MARC HM-E 296 7:45:22.9 4:13:28
2079 POINEAU PIERRE HM-E 297 7:56:09.4 4:24:14
2080 FARGEAS JEAN JACQUES HM-E 298 7:56:35.5 4:24:40
2081 FERNANDEZ MANUEL HM-E 299 7:57:39.7 4:25:45
2082 JAMBU LOUIS HM-D 547 7:58:00.4 4:26:05
2083 LIBET ROMAIN HM-A 117 8:05:47.6 4:33:53
2084 THIERRY CHRISTEL DM-W2 29 8:06:33.4 4:34:38
2085 CHAUVE AYMERIC HM-B 378 8:06:45.1 4:34:50
2086 FAVROT FREDERIC HM-C 660 8:17:52.4 4:45:57
2087 DEFEZ ANNE DM-W2 30 8:18:08.3 4:46:13
2088 BELTRAN JEAN HM-D 548 8:23:48.5 4:51:54
2089 BELTRAN JOSE HM-C 661 8:23:59.1 4:52:04
2090 BALANCA JACQUES HM-D 549 8:23:59.7 4:52:05
2091 COOK SERGE HM-D 550 8:49:38.6 5:17:44
2092 LUCAS FRANS HM-D 551 9:21:15.1 5:49:20

Haut 









Haut  
 Espace privé   Droits d’auteur-Copyright: Cliquez ici pour lire !